Year,Month,Day,Hour,Minute,Value (Times are PST for temperature in C)
2011,01,13,00,00,5.90
2011,01,13,00,01,5.90
2011,01,13,00,02,5.90
2011,01,13,00,03,5.90
2011,01,13,00,04,5.90
2011,01,13,00,05,6.00
2011,01,13,00,06,6.00
2011,01,13,00,07,6.00
2011,01,13,00,08,6.00
2011,01,13,00,09,6.00
2011,01,13,00,10,6.10
2011,01,13,00,11,6.10
2011,01,13,00,12,6.10
2011,01,13,00,13,6.10
2011,01,13,00,14,6.10
2011,01,13,00,15,6.10
2011,01,13,00,16,6.10
2011,01,13,00,17,6.10
2011,01,13,00,18,6.20
2011,01,13,00,19,6.20
2011,01,13,00,20,6.20
2011,01,13,00,21,6.20
2011,01,13,00,22,6.20
2011,01,13,00,23,6.20
2011,01,13,00,24,6.20
2011,01,13,00,25,6.20
2011,01,13,00,26,6.20
2011,01,13,00,27,6.30
2011,01,13,00,28,6.30
2011,01,13,00,29,6.30
2011,01,13,00,30,6.30
2011,01,13,00,31,6.30
2011,01,13,00,32,6.30
2011,01,13,00,33,6.30
2011,01,13,00,34,6.30
2011,01,13,00,35,6.30
2011,01,13,00,36,6.30
2011,01,13,00,37,6.30
2011,01,13,00,38,6.30
2011,01,13,00,39,6.30
2011,01,13,00,40,6.40
2011,01,13,00,41,6.40
2011,01,13,00,42,6.40
2011,01,13,00,43,6.40
2011,01,13,00,44,6.40
2011,01,13,00,45,6.40
2011,01,13,00,46,6.40
2011,01,13,00,47,6.40
2011,01,13,00,48,6.40
2011,01,13,00,49,6.40
2011,01,13,00,50,6.40
2011,01,13,00,51,6.40
2011,01,13,00,52,6.40
2011,01,13,00,53,6.40
2011,01,13,00,54,6.50
2011,01,13,00,55,6.50
2011,01,13,00,56,6.50
2011,01,13,00,57,6.50
2011,01,13,00,58,6.50
2011,01,13,00,59,6.50
2011,01,13,01,00,6.50
2011,01,13,01,01,6.50
2011,01,13,01,02,6.50
2011,01,13,01,03,6.50
2011,01,13,01,04,6.50
2011,01,13,01,05,6.50
2011,01,13,01,06,6.50
2011,01,13,01,07,6.50
2011,01,13,01,08,6.50
2011,01,13,01,09,6.50
2011,01,13,01,10,6.50
2011,01,13,01,11,6.50
2011,01,13,01,12,6.50
2011,01,13,01,13,6.50
2011,01,13,01,14,6.60
2011,01,13,01,15,6.60
2011,01,13,01,16,6.60
2011,01,13,01,17,6.60
2011,01,13,01,18,6.60
2011,01,13,01,19,6.60
2011,01,13,01,20,6.60
2011,01,13,01,21,6.60
2011,01,13,01,22,6.60
2011,01,13,01,23,6.60
2011,01,13,01,24,6.60
2011,01,13,01,25,6.60
2011,01,13,01,26,6.60
2011,01,13,01,27,6.60
2011,01,13,01,28,6.70
2011,01,13,01,29,6.70
2011,01,13,01,30,6.70
2011,01,13,01,31,6.70
2011,01,13,01,32,6.70
2011,01,13,01,33,6.70
2011,01,13,01,34,6.70
2011,01,13,01,35,6.60
2011,01,13,01,36,6.60
2011,01,13,01,37,6.60
2011,01,13,01,38,6.60
2011,01,13,01,39,6.60
2011,01,13,01,40,6.60
2011,01,13,01,41,6.60
2011,01,13,01,42,6.60
2011,01,13,01,43,6.60
2011,01,13,01,44,6.60
2011,01,13,01,45,6.60
2011,01,13,01,46,6.60
2011,01,13,01,47,6.60
2011,01,13,01,48,6.60
2011,01,13,01,49,6.60
2011,01,13,01,50,6.60
2011,01,13,01,51,6.60
2011,01,13,01,52,6.60
2011,01,13,01,53,6.60
2011,01,13,01,54,6.60
2011,01,13,01,55,6.60
2011,01,13,01,56,6.60
2011,01,13,01,57,6.60
2011,01,13,01,58,6.60
2011,01,13,01,59,6.60
2011,01,13,02,00,6.50
2011,01,13,02,01,6.50
2011,01,13,02,02,6.50
2011,01,13,02,03,6.50
2011,01,13,02,04,6.50
2011,01,13,02,05,6.40
2011,01,13,02,06,6.40
2011,01,13,02,07,6.40
2011,01,13,02,08,6.40
2011,01,13,02,09,6.40
2011,01,13,02,10,6.40
2011,01,13,02,11,6.40
2011,01,13,02,12,6.30
2011,01,13,02,13,6.30
2011,01,13,02,14,6.30
2011,01,13,02,15,6.30
2011,01,13,02,16,6.30
2011,01,13,02,17,6.30
2011,01,13,02,18,6.30
2011,01,13,02,19,6.20
2011,01,13,02,20,6.20
2011,01,13,02,21,6.20
2011,01,13,02,22,6.20
2011,01,13,02,23,6.20
2011,01,13,02,24,6.20
2011,01,13,02,25,6.20
2011,01,13,02,26,6.20
2011,01,13,02,27,6.20
2011,01,13,02,28,6.20
2011,01,13,02,29,6.20
2011,01,13,02,30,6.20
2011,01,13,02,31,6.10
2011,01,13,02,32,6.10
2011,01,13,02,33,6.10
2011,01,13,02,34,6.10
2011,01,13,02,35,6.10
2011,01,13,02,36,6.10
2011,01,13,02,37,6.10
2011,01,13,02,38,6.10
2011,01,13,02,39,6.10
2011,01,13,02,40,6.10
2011,01,13,02,41,6.10
2011,01,13,02,42,6.10
2011,01,13,02,43,6.10
2011,01,13,02,44,6.00
2011,01,13,02,45,6.00
2011,01,13,02,46,6.00
2011,01,13,02,47,6.00
2011,01,13,02,48,6.00
2011,01,13,02,49,6.00
2011,01,13,02,50,6.00
2011,01,13,02,51,6.00
2011,01,13,02,52,6.00
2011,01,13,02,53,5.90
2011,01,13,02,54,5.90
2011,01,13,02,55,5.90
2011,01,13,02,56,5.90
2011,01,13,02,57,5.90
2011,01,13,02,58,5.90
2011,01,13,02,59,5.90
2011,01,13,03,00,5.90
2011,01,13,03,01,5.90
2011,01,13,03,02,5.90
2011,01,13,03,03,5.90
2011,01,13,03,04,5.90
2011,01,13,03,05,5.90
2011,01,13,03,06,5.90
2011,01,13,03,07,6.00
2011,01,13,03,08,6.00
2011,01,13,03,09,6.00
2011,01,13,03,10,6.00
2011,01,13,03,11,6.00
2011,01,13,03,12,6.00
2011,01,13,03,13,6.00
2011,01,13,03,14,6.00
2011,01,13,03,15,6.00
2011,01,13,03,16,6.10
2011,01,13,03,17,6.00
2011,01,13,03,18,6.10
2011,01,13,03,19,6.10
2011,01,13,03,20,6.00
2011,01,13,03,21,6.00
2011,01,13,03,22,6.00
2011,01,13,03,23,6.00
2011,01,13,03,24,6.00
2011,01,13,03,25,6.00
2011,01,13,03,26,6.00
2011,01,13,03,27,6.00
2011,01,13,03,28,6.00
2011,01,13,03,29,6.00
2011,01,13,03,30,6.00
2011,01,13,03,31,6.00
2011,01,13,03,32,6.00
2011,01,13,03,33,6.00
2011,01,13,03,34,6.00
2011,01,13,03,35,6.00
2011,01,13,03,36,6.00
2011,01,13,03,37,6.00
2011,01,13,03,38,6.00
2011,01,13,03,39,6.00
2011,01,13,03,40,6.00
2011,01,13,03,41,5.90
2011,01,13,03,42,6.00
2011,01,13,03,43,6.00
2011,01,13,03,44,6.00
2011,01,13,03,45,6.00
2011,01,13,03,46,6.00
2011,01,13,03,47,6.00
2011,01,13,03,48,6.00
2011,01,13,03,49,5.90
2011,01,13,03,50,6.00
2011,01,13,03,51,6.00
2011,01,13,03,52,6.00
2011,01,13,03,53,6.00
2011,01,13,03,54,6.00
2011,01,13,03,55,6.00
2011,01,13,03,56,6.00
2011,01,13,03,57,6.00
2011,01,13,03,58,6.00
2011,01,13,03,59,6.00
2011,01,13,04,00,6.00
2011,01,13,04,01,6.00
2011,01,13,04,02,6.00
2011,01,13,04,03,6.00
2011,01,13,04,04,6.00
2011,01,13,04,05,6.10
2011,01,13,04,06,6.10
2011,01,13,04,07,6.10
2011,01,13,04,08,6.10
2011,01,13,04,09,6.10
2011,01,13,04,10,6.10
2011,01,13,04,11,6.10
2011,01,13,04,12,6.10
2011,01,13,04,13,6.10
2011,01,13,04,14,6.10
2011,01,13,04,15,6.10
2011,01,13,04,16,6.10
2011,01,13,04,17,6.10
2011,01,13,04,18,6.10
2011,01,13,04,19,6.10
2011,01,13,04,20,6.10
2011,01,13,04,21,6.10
2011,01,13,04,22,6.10
2011,01,13,04,23,6.10
2011,01,13,04,24,6.10
2011,01,13,04,25,6.10
2011,01,13,04,26,6.10
2011,01,13,04,27,6.10
2011,01,13,04,28,6.00
2011,01,13,04,29,6.00
2011,01,13,04,30,6.00
2011,01,13,04,31,6.00
2011,01,13,04,32,6.00
2011,01,13,04,33,6.00
2011,01,13,04,34,6.00
2011,01,13,04,35,6.00
2011,01,13,04,36,6.00
2011,01,13,04,37,6.00
2011,01,13,04,38,6.00
2011,01,13,04,39,6.00
2011,01,13,04,40,6.00
2011,01,13,04,41,6.00
2011,01,13,04,42,6.00
2011,01,13,04,43,6.00
2011,01,13,04,44,5.90
2011,01,13,04,45,5.90
2011,01,13,04,46,5.90
2011,01,13,04,47,5.90
2011,01,13,04,48,5.90
2011,01,13,04,49,5.90
2011,01,13,04,50,5.90
2011,01,13,04,51,5.90
2011,01,13,04,52,5.90
2011,01,13,04,53,5.90
2011,01,13,04,54,5.90
2011,01,13,04,55,5.90
2011,01,13,04,56,6.00
2011,01,13,04,57,5.90
2011,01,13,04,58,5.90
2011,01,13,04,59,5.90
2011,01,13,05,00,5.90
2011,01,13,05,01,6.00
2011,01,13,05,02,6.00
2011,01,13,05,03,6.00
2011,01,13,05,04,5.90
2011,01,13,05,05,6.00
2011,01,13,05,06,5.90
2011,01,13,05,07,5.90
2011,01,13,05,08,6.00
2011,01,13,05,09,6.00
2011,01,13,05,10,6.00
2011,01,13,05,11,6.00
2011,01,13,05,12,6.00
2011,01,13,05,13,6.00
2011,01,13,05,14,6.00
2011,01,13,05,15,6.00
2011,01,13,05,16,6.00
2011,01,13,05,17,6.00
2011,01,13,05,18,6.00
2011,01,13,05,19,6.00
2011,01,13,05,20,6.00
2011,01,13,05,21,6.00
2011,01,13,05,22,6.10
2011,01,13,05,23,6.10
2011,01,13,05,24,6.10
2011,01,13,05,25,6.10
2011,01,13,05,26,6.10
2011,01,13,05,27,6.10
2011,01,13,05,28,6.10
2011,01,13,05,29,6.10
2011,01,13,05,30,6.10
2011,01,13,05,31,6.10
2011,01,13,05,32,6.10
2011,01,13,05,33,6.10
2011,01,13,05,34,6.10
2011,01,13,05,35,6.10
2011,01,13,05,36,6.10
2011,01,13,05,37,6.00
2011,01,13,05,38,6.00
2011,01,13,05,39,6.00
2011,01,13,05,40,6.00
2011,01,13,05,41,6.00
2011,01,13,05,42,6.10
2011,01,13,05,43,6.10
2011,01,13,05,44,6.10
2011,01,13,05,45,6.10
2011,01,13,05,46,6.10
2011,01,13,05,47,6.10
2011,01,13,05,48,6.10
2011,01,13,05,49,6.10
2011,01,13,05,50,6.10
2011,01,13,05,51,6.10
2011,01,13,05,52,6.10
2011,01,13,05,53,6.10
2011,01,13,05,54,6.10
2011,01,13,05,55,6.20
2011,01,13,05,56,6.20
2011,01,13,05,57,6.20
2011,01,13,05,58,6.20
2011,01,13,05,59,6.20
2011,01,13,06,00,6.20
2011,01,13,06,01,6.20
2011,01,13,06,02,6.20
2011,01,13,06,03,6.20
2011,01,13,06,04,6.20
2011,01,13,06,05,6.20
2011,01,13,06,06,6.20
2011,01,13,06,07,6.20
2011,01,13,06,08,6.20
2011,01,13,06,09,6.20
2011,01,13,06,10,6.20
2011,01,13,06,11,6.20
2011,01,13,06,12,6.20
2011,01,13,06,13,6.20
2011,01,13,06,14,6.20
2011,01,13,06,15,6.20
2011,01,13,06,16,6.20
2011,01,13,06,17,6.20
2011,01,13,06,18,6.20
2011,01,13,06,19,6.20
2011,01,13,06,20,6.20
2011,01,13,06,21,6.20
2011,01,13,06,22,6.20
2011,01,13,06,23,6.20
2011,01,13,06,24,6.20
2011,01,13,06,25,6.10
2011,01,13,06,26,6.10
2011,01,13,06,27,6.10
2011,01,13,06,28,6.10
2011,01,13,06,29,6.10
2011,01,13,06,30,6.10
2011,01,13,06,31,6.10
2011,01,13,06,32,6.10
2011,01,13,06,33,6.10
2011,01,13,06,34,6.10
2011,01,13,06,35,6.00
2011,01,13,06,36,6.00
2011,01,13,06,37,6.00
2011,01,13,06,38,6.00
2011,01,13,06,39,6.00
2011,01,13,06,40,5.90
2011,01,13,06,41,5.90
2011,01,13,06,42,5.90
2011,01,13,06,43,5.90
2011,01,13,06,44,5.90
2011,01,13,06,45,5.90
2011,01,13,06,46,5.90
2011,01,13,06,47,5.90
2011,01,13,06,48,5.90
2011,01,13,06,49,5.90
2011,01,13,06,50,5.90
2011,01,13,06,51,5.90
2011,01,13,06,52,5.90
2011,01,13,06,53,5.90
2011,01,13,06,54,5.90
2011,01,13,06,55,5.90
2011,01,13,06,56,5.90
2011,01,13,06,57,5.90
2011,01,13,06,58,5.90
2011,01,13,06,59,5.90
2011,01,13,07,00,5.80
2011,01,13,07,01,5.80
2011,01,13,07,02,5.80
2011,01,13,07,03,5.80
2011,01,13,07,04,5.80
2011,01,13,07,05,5.80
2011,01,13,07,06,5.80
2011,01,13,07,07,5.80
2011,01,13,07,08,5.80
2011,01,13,07,09,5.80
2011,01,13,07,10,5.80
2011,01,13,07,11,5.80
2011,01,13,07,12,5.80
2011,01,13,07,13,5.80
2011,01,13,07,14,5.80
2011,01,13,07,15,5.80
2011,01,13,07,16,5.80
2011,01,13,07,17,5.80
2011,01,13,07,18,5.80
2011,01,13,07,19,5.90
2011,01,13,07,20,5.90
2011,01,13,07,21,5.90
2011,01,13,07,22,5.90
2011,01,13,07,23,5.80
2011,01,13,07,24,5.80
2011,01,13,07,25,5.90
2011,01,13,07,26,5.90
2011,01,13,07,27,5.90
2011,01,13,07,28,5.90
2011,01,13,07,29,5.80
2011,01,13,07,30,5.80
2011,01,13,07,31,5.80
2011,01,13,07,32,5.80
2011,01,13,07,33,5.80
2011,01,13,07,34,5.90
2011,01,13,07,35,5.90
2011,01,13,07,36,5.90
2011,01,13,07,37,5.90
2011,01,13,07,38,5.90
2011,01,13,07,39,5.90
2011,01,13,07,40,5.90
2011,01,13,07,41,5.90
2011,01,13,07,42,5.90
2011,01,13,07,43,5.90
2011,01,13,07,44,5.90
2011,01,13,07,45,5.90
2011,01,13,07,46,5.90
2011,01,13,07,47,5.90
2011,01,13,07,48,5.90
2011,01,13,07,49,5.90
2011,01,13,07,50,5.90
2011,01,13,07,51,5.90
2011,01,13,07,52,5.90
2011,01,13,07,53,5.90
2011,01,13,07,54,5.90
2011,01,13,07,55,5.90
2011,01,13,07,56,5.90
2011,01,13,07,57,5.90
2011,01,13,07,58,5.90
2011,01,13,07,59,5.90
2011,01,13,08,00,5.90
2011,01,13,08,01,5.90
2011,01,13,08,02,5.90
2011,01,13,08,03,5.90
2011,01,13,08,04,5.90
2011,01,13,08,05,5.90
2011,01,13,08,06,5.90
2011,01,13,08,07,5.90
2011,01,13,08,08,5.90
2011,01,13,08,09,5.80
2011,01,13,08,10,5.80
2011,01,13,08,11,5.80
2011,01,13,08,12,5.80
2011,01,13,08,13,5.80
2011,01,13,08,14,5.80
2011,01,13,08,15,5.80
2011,01,13,08,16,5.80
2011,01,13,08,17,5.80
2011,01,13,08,18,5.80
2011,01,13,08,19,5.80
2011,01,13,08,20,5.80
2011,01,13,08,21,5.80
2011,01,13,08,22,5.90
2011,01,13,08,23,5.90
2011,01,13,08,24,5.90
2011,01,13,08,25,5.90
2011,01,13,08,26,5.90
2011,01,13,08,27,5.90
2011,01,13,08,28,5.90
2011,01,13,08,29,5.90
2011,01,13,08,30,5.90
2011,01,13,08,31,5.90
2011,01,13,08,32,5.90
2011,01,13,08,33,5.90
2011,01,13,08,34,5.90
2011,01,13,08,35,5.90
2011,01,13,08,36,5.90
2011,01,13,08,37,5.90
2011,01,13,08,38,5.90
2011,01,13,08,39,5.90
2011,01,13,08,40,5.90
2011,01,13,08,41,5.90
2011,01,13,08,42,5.90
2011,01,13,08,43,5.90
2011,01,13,08,44,5.90
2011,01,13,08,45,6.00
2011,01,13,08,46,6.00
2011,01,13,08,47,6.00
2011,01,13,08,48,6.10
2011,01,13,08,49,6.00
2011,01,13,08,50,6.10
2011,01,13,08,51,6.10
2011,01,13,08,52,6.10
2011,01,13,08,53,6.10
2011,01,13,08,54,6.10
2011,01,13,08,55,6.10
2011,01,13,08,56,6.10
2011,01,13,08,57,6.10
2011,01,13,08,58,6.10
2011,01,13,08,59,6.10
2011,01,13,09,00,6.10
2011,01,13,09,01,6.10
2011,01,13,09,02,6.10
2011,01,13,09,03,6.10
2011,01,13,09,04,6.10
2011,01,13,09,05,6.10
2011,01,13,09,06,6.10
2011,01,13,09,07,6.10
2011,01,13,09,08,6.10
2011,01,13,09,09,6.10
2011,01,13,09,10,6.10
2011,01,13,09,11,6.20
2011,01,13,09,12,6.20
2011,01,13,09,13,6.20
2011,01,13,09,14,6.20
2011,01,13,09,15,6.20
2011,01,13,09,16,6.20
2011,01,13,09,17,6.20
2011,01,13,09,18,6.20
2011,01,13,09,19,6.20
2011,01,13,09,20,6.20
2011,01,13,09,21,6.20
2011,01,13,09,22,6.20
2011,01,13,09,23,6.20
2011,01,13,09,24,6.20
2011,01,13,09,25,6.30
2011,01,13,09,26,6.30
2011,01,13,09,27,6.30
2011,01,13,09,28,6.30
2011,01,13,09,29,6.30
2011,01,13,09,30,6.30
2011,01,13,09,31,6.40
2011,01,13,09,32,6.30
2011,01,13,09,33,6.40
2011,01,13,09,34,6.40
2011,01,13,09,35,6.40
2011,01,13,09,36,6.40
2011,01,13,09,37,6.40
2011,01,13,09,38,6.40
2011,01,13,09,39,6.40
2011,01,13,09,40,6.40
2011,01,13,09,41,6.40
2011,01,13,09,42,6.50
2011,01,13,09,43,6.50
2011,01,13,09,44,6.50
2011,01,13,09,45,6.50
2011,01,13,09,46,6.50
2011,01,13,09,47,6.50
2011,01,13,09,48,6.50
2011,01,13,09,49,6.50
2011,01,13,09,50,6.50
2011,01,13,09,51,6.50
2011,01,13,09,52,6.50
2011,01,13,09,53,6.60
2011,01,13,09,54,6.60
2011,01,13,09,55,6.60
2011,01,13,09,56,6.60
2011,01,13,09,57,6.60
2011,01,13,09,58,6.60
2011,01,13,09,59,6.60
2011,01,13,10,00,6.60
2011,01,13,10,01,6.60
2011,01,13,10,02,6.70
2011,01,13,10,03,6.70
2011,01,13,10,04,6.70
2011,01,13,10,05,6.70
2011,01,13,10,06,6.70
2011,01,13,10,07,6.70
2011,01,13,10,08,6.70
2011,01,13,10,09,6.70
2011,01,13,10,10,6.70
2011,01,13,10,11,6.70
2011,01,13,10,12,6.70
2011,01,13,10,13,6.80
2011,01,13,10,14,6.80
2011,01,13,10,15,6.80
2011,01,13,10,16,6.80
2011,01,13,10,17,6.80
2011,01,13,10,18,6.80
2011,01,13,10,19,6.80
2011,01,13,10,20,6.80
2011,01,13,10,21,6.90
2011,01,13,10,22,6.90
2011,01,13,10,23,6.90
2011,01,13,10,24,6.90
2011,01,13,10,25,6.90
2011,01,13,10,26,6.90
2011,01,13,10,27,7.00
2011,01,13,10,28,7.00
2011,01,13,10,29,7.00
2011,01,13,10,30,7.10
2011,01,13,10,31,7.10
2011,01,13,10,32,7.10
2011,01,13,10,33,7.10
2011,01,13,10,34,7.10
2011,01,13,10,35,7.10
2011,01,13,10,36,7.20
2011,01,13,10,37,7.20
2011,01,13,10,38,7.20
2011,01,13,10,39,7.20
2011,01,13,10,40,7.20
2011,01,13,10,41,7.20
2011,01,13,10,42,7.20
2011,01,13,10,43,7.30
2011,01,13,10,44,7.30
2011,01,13,10,45,7.30
2011,01,13,10,46,7.30
2011,01,13,10,47,7.30
2011,01,13,10,48,7.30
2011,01,13,10,49,7.30
2011,01,13,10,50,7.30
2011,01,13,10,51,7.30
2011,01,13,10,52,7.30
2011,01,13,10,53,7.30
2011,01,13,10,54,7.30
2011,01,13,10,55,7.20
2011,01,13,10,56,7.20
2011,01,13,10,57,7.20
2011,01,13,10,58,7.20
2011,01,13,10,59,7.20
2011,01,13,11,00,7.20
2011,01,13,11,01,7.20
2011,01,13,11,02,7.20
2011,01,13,11,03,7.30
2011,01,13,11,04,7.30
2011,01,13,11,05,7.30
2011,01,13,11,06,7.30
2011,01,13,11,07,7.30
2011,01,13,11,08,7.30
2011,01,13,11,09,7.30
2011,01,13,11,10,7.30
2011,01,13,11,11,7.30
2011,01,13,11,12,7.30
2011,01,13,11,13,7.30
2011,01,13,11,14,7.30
2011,01,13,11,15,7.40
2011,01,13,11,16,7.40
2011,01,13,11,17,7.40
2011,01,13,11,18,7.40
2011,01,13,11,19,7.40
2011,01,13,11,20,7.40
2011,01,13,11,21,7.40
2011,01,13,11,22,7.40
2011,01,13,11,23,7.40
2011,01,13,11,24,7.40
2011,01,13,11,25,7.40
2011,01,13,11,26,7.40
2011,01,13,11,27,7.50
2011,01,13,11,28,7.60
2011,01,13,11,29,7.60
2011,01,13,11,30,7.60
2011,01,13,11,31,7.60
2011,01,13,11,32,7.60
2011,01,13,11,33,7.70
2011,01,13,11,34,7.70
2011,01,13,11,35,7.70
2011,01,13,11,36,7.70
2011,01,13,11,37,7.70
2011,01,13,11,38,7.80
2011,01,13,11,39,7.80
2011,01,13,11,40,7.80
2011,01,13,11,41,7.80
2011,01,13,11,42,7.90
2011,01,13,11,43,7.90
2011,01,13,11,44,7.90
2011,01,13,11,45,7.90
2011,01,13,11,46,8.00
2011,01,13,11,47,8.00
2011,01,13,11,48,8.00
2011,01,13,11,49,8.00
2011,01,13,11,50,8.10
2011,01,13,11,51,8.10
2011,01,13,11,52,8.10
2011,01,13,11,53,8.10
2011,01,13,11,54,8.10
2011,01,13,11,55,8.20
2011,01,13,11,56,8.20
2011,01,13,11,57,8.20
2011,01,13,11,58,8.30
2011,01,13,11,59,8.30
2011,01,13,12,00,8.30
2011,01,13,12,01,8.40
2011,01,13,12,02,8.40
2011,01,13,12,03,8.40
2011,01,13,12,04,8.40
2011,01,13,12,05,8.40
2011,01,13,12,06,8.50
2011,01,13,12,07,8.50
2011,01,13,12,08,8.50
2011,01,13,12,09,8.50
2011,01,13,12,10,8.60
2011,01,13,12,11,8.60
2011,01,13,12,12,8.60
2011,01,13,12,13,8.60
2011,01,13,12,14,8.60
2011,01,13,12,15,8.70
2011,01,13,12,16,8.70
2011,01,13,12,17,8.70
2011,01,13,12,18,8.70
2011,01,13,12,19,8.70
2011,01,13,12,20,8.70
2011,01,13,12,21,8.70
2011,01,13,12,22,8.70
2011,01,13,12,23,8.70
2011,01,13,12,24,8.80
2011,01,13,12,25,8.90
2011,01,13,12,26,8.90
2011,01,13,12,27,9.00
2011,01,13,12,28,9.10
2011,01,13,12,29,9.10
2011,01,13,12,30,9.10
2011,01,13,12,31,9.20
2011,01,13,12,32,9.20
2011,01,13,12,33,9.20
2011,01,13,12,34,9.30
2011,01,13,12,35,9.30
2011,01,13,12,36,9.40
2011,01,13,12,37,9.40
2011,01,13,12,38,9.40
2011,01,13,12,39,9.50
2011,01,13,12,40,9.50
2011,01,13,12,41,9.50
2011,01,13,12,42,9.50
2011,01,13,12,43,9.60
2011,01,13,12,44,9.60
2011,01,13,12,45,9.60
2011,01,13,12,46,9.60
2011,01,13,12,47,9.60
2011,01,13,12,48,9.60
2011,01,13,12,49,9.60
2011,01,13,12,50,9.60
2011,01,13,12,51,9.60
2011,01,13,12,52,9.60
2011,01,13,12,53,9.60
2011,01,13,12,54,9.60
2011,01,13,12,55,9.60
2011,01,13,12,56,9.60
2011,01,13,12,57,9.60
2011,01,13,12,58,9.60
2011,01,13,12,59,9.60
2011,01,13,13,00,9.60
2011,01,13,13,01,9.60
2011,01,13,13,02,9.60
2011,01,13,13,03,9.60
2011,01,13,13,04,9.60
2011,01,13,13,05,9.60
2011,01,13,13,06,9.60
2011,01,13,13,07,9.60
2011,01,13,13,08,9.60
2011,01,13,13,09,9.60
2011,01,13,13,10,9.60
2011,01,13,13,11,9.60
2011,01,13,13,12,9.60
2011,01,13,13,13,9.60
2011,01,13,13,14,9.60
2011,01,13,13,15,9.60
2011,01,13,13,16,9.60
2011,01,13,13,17,9.60
2011,01,13,13,18,9.60
2011,01,13,13,19,9.60
2011,01,13,13,20,9.60
2011,01,13,13,21,9.50
2011,01,13,13,22,9.50
2011,01,13,13,23,9.50
2011,01,13,13,24,9.50
2011,01,13,13,25,9.50
2011,01,13,13,26,9.50
2011,01,13,13,27,9.50
2011,01,13,13,28,9.50
2011,01,13,13,29,9.50
2011,01,13,13,30,9.50
2011,01,13,13,31,9.50
2011,01,13,13,32,9.50
2011,01,13,13,33,9.60
2011,01,13,13,34,9.60
2011,01,13,13,35,9.60
2011,01,13,13,36,9.60
2011,01,13,13,37,9.60
2011,01,13,13,38,9.50
2011,01,13,13,39,9.50
2011,01,13,13,40,9.50
2011,01,13,13,41,9.50
2011,01,13,13,42,9.40
2011,01,13,13,43,9.40
2011,01,13,13,44,9.40
2011,01,13,13,45,9.40
2011,01,13,13,46,9.40
2011,01,13,13,47,9.40
2011,01,13,13,48,9.40
2011,01,13,13,49,9.40
2011,01,13,13,50,9.40
2011,01,13,13,51,9.40
2011,01,13,13,52,9.30
2011,01,13,13,53,9.30
2011,01,13,13,54,9.40
2011,01,13,13,55,9.40
2011,01,13,13,56,9.40
2011,01,13,13,57,9.40
2011,01,13,13,58,9.30
2011,01,13,13,59,9.30
2011,01,13,14,00,9.30
2011,01,13,14,01,9.30
2011,01,13,14,02,9.30
2011,01,13,14,03,9.30
2011,01,13,14,04,9.30
2011,01,13,14,05,9.30
2011,01,13,14,06,9.30
2011,01,13,14,07,9.30
2011,01,13,14,08,9.30
2011,01,13,14,09,9.30
2011,01,13,14,10,9.30
2011,01,13,14,11,9.30
2011,01,13,14,12,9.30
2011,01,13,14,13,9.30
2011,01,13,14,14,9.30
2011,01,13,14,15,9.30
2011,01,13,14,16,9.30
2011,01,13,14,17,9.30
2011,01,13,14,18,9.30
2011,01,13,14,19,9.30
2011,01,13,14,20,9.30
2011,01,13,14,21,9.30
2011,01,13,14,22,9.20
2011,01,13,14,23,9.20
2011,01,13,14,24,9.20
2011,01,13,14,25,9.20
2011,01,13,14,26,9.20
2011,01,13,14,27,9.20
2011,01,13,14,28,9.20
2011,01,13,14,29,9.20
2011,01,13,14,30,9.20
2011,01,13,14,31,9.20
2011,01,13,14,32,9.20
2011,01,13,14,33,9.20
2011,01,13,14,34,9.20
2011,01,13,14,35,9.10
2011,01,13,14,36,9.10
2011,01,13,14,37,9.10
2011,01,13,14,38,9.10
2011,01,13,14,39,9.10
2011,01,13,14,40,9.00
2011,01,13,14,41,9.00
2011,01,13,14,42,9.00
2011,01,13,14,43,9.00
2011,01,13,14,44,8.90
2011,01,13,14,45,8.90
2011,01,13,14,46,8.80
2011,01,13,14,47,8.80
2011,01,13,14,48,8.70
2011,01,13,14,49,8.70
2011,01,13,14,50,8.60
2011,01,13,14,51,8.60
2011,01,13,14,52,8.60
2011,01,13,14,53,8.50
2011,01,13,14,54,8.50
2011,01,13,14,55,8.40
2011,01,13,14,56,8.40
2011,01,13,14,57,8.30
2011,01,13,14,58,8.30
2011,01,13,14,59,8.30
2011,01,13,15,00,8.30
2011,01,13,15,01,8.30
2011,01,13,15,02,8.30
2011,01,13,15,03,8.30
2011,01,13,15,04,8.30
2011,01,13,15,05,8.30
2011,01,13,15,06,8.30
2011,01,13,15,07,8.30
2011,01,13,15,08,8.30
2011,01,13,15,09,8.30
2011,01,13,15,10,8.30
2011,01,13,15,11,8.30
2011,01,13,15,12,8.30
2011,01,13,15,13,8.30
2011,01,13,15,14,8.30
2011,01,13,15,15,8.30
2011,01,13,15,16,8.30
2011,01,13,15,17,8.30
2011,01,13,15,18,8.30
2011,01,13,15,19,8.30
2011,01,13,15,20,8.30
2011,01,13,15,21,8.30
2011,01,13,15,22,8.30
2011,01,13,15,23,8.30
2011,01,13,15,24,8.30
2011,01,13,15,25,8.30
2011,01,13,15,26,8.30
2011,01,13,15,27,8.30
2011,01,13,15,28,8.30
2011,01,13,15,29,8.30
2011,01,13,15,30,8.30
2011,01,13,15,31,8.20
2011,01,13,15,32,8.20
2011,01,13,15,33,8.20
2011,01,13,15,34,8.20
2011,01,13,15,35,8.20
2011,01,13,15,36,8.20
2011,01,13,15,37,8.20
2011,01,13,15,38,8.20
2011,01,13,15,39,8.20
2011,01,13,15,40,8.20
2011,01,13,15,41,8.30
2011,01,13,15,42,8.20
2011,01,13,15,43,8.30
2011,01,13,15,44,8.20
2011,01,13,15,45,8.30
2011,01,13,15,46,8.30
2011,01,13,15,47,8.30
2011,01,13,15,48,8.30
2011,01,13,15,49,8.30
2011,01,13,15,50,8.30
2011,01,13,15,51,8.30
2011,01,13,15,52,8.30
2011,01,13,15,53,8.30
2011,01,13,15,54,8.30
2011,01,13,15,55,8.30
2011,01,13,15,56,8.30
2011,01,13,15,57,8.30
2011,01,13,15,58,8.30
2011,01,13,15,59,8.30
2011,01,13,16,00,8.30
2011,01,13,16,01,8.30
2011,01,13,16,02,8.30
2011,01,13,16,03,8.40
2011,01,13,16,04,8.40
2011,01,13,16,05,8.40
2011,01,13,16,06,8.40
2011,01,13,16,07,8.40
2011,01,13,16,08,8.40
2011,01,13,16,09,8.40
2011,01,13,16,10,8.40
2011,01,13,16,11,8.40
2011,01,13,16,12,8.40
2011,01,13,16,13,8.40
2011,01,13,16,14,8.50
2011,01,13,16,15,8.50
2011,01,13,16,16,8.50
2011,01,13,16,17,8.50
2011,01,13,16,18,8.50
2011,01,13,16,19,8.50
2011,01,13,16,20,8.50
2011,01,13,16,21,8.50
2011,01,13,16,22,8.50
2011,01,13,16,23,8.50
2011,01,13,16,24,8.50
2011,01,13,16,25,8.50
2011,01,13,16,26,8.50
2011,01,13,16,27,8.60
2011,01,13,16,28,8.60
2011,01,13,16,29,8.60
2011,01,13,16,30,8.70
2011,01,13,16,31,8.70
2011,01,13,16,32,8.80
2011,01,13,16,33,8.80
2011,01,13,16,34,8.90
2011,01,13,16,35,8.90
2011,01,13,16,36,9.00
2011,01,13,16,37,9.10
2011,01,13,16,38,9.10
2011,01,13,16,39,9.10
2011,01,13,16,40,9.10
2011,01,13,16,41,9.10
2011,01,13,16,42,9.10
2011,01,13,16,43,9.10
2011,01,13,16,44,9.10
2011,01,13,16,45,9.10
2011,01,13,16,46,9.10
2011,01,13,16,47,9.10
2011,01,13,16,48,9.10
2011,01,13,16,49,9.10
2011,01,13,16,50,9.10
2011,01,13,16,51,9.10
2011,01,13,16,52,9.00
2011,01,13,16,53,9.00
2011,01,13,16,54,9.00
2011,01,13,16,55,9.00
2011,01,13,16,56,8.90
2011,01,13,16,57,8.90
2011,01,13,16,58,8.90
2011,01,13,16,59,8.80
2011,01,13,17,00,8.80
2011,01,13,17,01,8.80
2011,01,13,17,02,8.80
2011,01,13,17,03,8.80
2011,01,13,17,04,8.70
2011,01,13,17,05,8.70
2011,01,13,17,06,8.70
2011,01,13,17,07,8.70
2011,01,13,17,08,8.70
2011,01,13,17,09,8.70
2011,01,13,17,10,8.70
2011,01,13,17,11,8.70
2011,01,13,17,12,8.70
2011,01,13,17,13,8.70
2011,01,13,17,14,8.70
2011,01,13,17,15,8.70
2011,01,13,17,16,8.70
2011,01,13,17,17,8.70
2011,01,13,17,18,8.70
2011,01,13,17,19,8.70
2011,01,13,17,20,8.70
2011,01,13,17,21,8.70
2011,01,13,17,22,8.70
2011,01,13,17,23,8.70
2011,01,13,17,24,8.70
2011,01,13,17,25,8.70
2011,01,13,17,26,8.70
2011,01,13,17,27,8.70
2011,01,13,17,28,8.70
2011,01,13,17,29,8.70
2011,01,13,17,30,8.70
2011,01,13,17,31,8.70
2011,01,13,17,32,8.70
2011,01,13,17,33,8.70
2011,01,13,17,34,8.70
2011,01,13,17,35,8.70
2011,01,13,17,36,8.70
2011,01,13,17,37,8.70
2011,01,13,17,38,8.70
2011,01,13,17,39,8.70
2011,01,13,17,40,8.70
2011,01,13,17,41,8.70
2011,01,13,17,42,8.60
2011,01,13,17,43,8.60
2011,01,13,17,44,8.60
2011,01,13,17,45,8.60
2011,01,13,17,46,8.60
2011,01,13,17,47,8.60
2011,01,13,17,48,8.60
2011,01,13,17,49,8.60
2011,01,13,17,50,8.60
2011,01,13,17,51,8.60
2011,01,13,17,52,8.60
2011,01,13,17,53,8.60
2011,01,13,17,54,8.60
2011,01,13,17,55,8.60
2011,01,13,17,56,8.70
2011,01,13,17,57,8.70
2011,01,13,17,58,8.70
2011,01,13,17,59,8.70
2011,01,13,18,00,8.70
2011,01,13,18,01,8.70
2011,01,13,18,02,8.70
2011,01,13,18,03,8.70
2011,01,13,18,04,8.70
2011,01,13,18,05,8.70
2011,01,13,18,06,8.70